{"data":{"norad_id":60579,"epoch":"2026-09-19T11:12:30.243744Z","epoch_age_seconds":103668,"freshness":"FRESH","line1":"1 60579U 24149DR  26262.46701671  .00007155  00000+0  41278-3 0  9999","line2":"2 60579  97.6786 345.5703 0004549 199.1973 160.9087 15.12661005114701","mean_motion":15.12661005,"eccentricity":0.0004549,"inclination_deg":97.6786,"raan_deg":345.5703,"arg_perigee_deg":199.1973,"mean_anomaly_deg":160.9087,"bstar":0.00041278,"rev_number":11470,"period_min":95.196477944508,"perigee_km":524.94705517401,"apogee_km":531.23033931336,"semimajor_km":6906.2256972437,"source":"CELESTRAK","updated_at":"2026-09-20T09:00:34.872398Z"}}